Regional Weather Roundup
Issued by NWS

Home | Current Version | Previous Version | Graphics & Text | Print | Product List | Glossary Off
Versions: 1 2 3 4 5 6 7 8 9 10 11 12 13 14 15 16 17 18 19 20 21 22 23 24 25 26 27 28 29 30 31 32 33 34 35 36 37 38 39 40 41 42 43 44 45 46 47 48 49 50

000
ASUS43 KDTX 281501
RWRMI
MICHIGAN HOURLY REGIONAL WEATHER ROUNDUP
NATIONAL WEATHER SERVICE DETROIT/PONTIAC MI
1100 AM EDT THU APR 28 2016

NOTE: "FAIR" INDICATES FEW OR NO CLOUDS BELOW 12,000 FEET WITH NO
SIGNIFICANT WEATHER AND/OR OBSTRUCTION TO VISIBILITY.

MIZ047>049-052>055-059>063-066>070-074>076-081>083-281600-
SOUTHEAST LOWER MICHIGAN

CITY           SKY/WX    TMP DP  RH WIND       PRES   REMARKS
ADRIAN         LGT RAIN  41  38  89 E14       29.96S
ALMA           LGT RAIN  42  26  53 E14       30.01S
ANN ARBOR      LGT RAIN  42  35  76 E10       29.97F
BAD AXE        CLOUDY    42  26  53 E8        30.05F
CARO           CLOUDY    44  21  40 E12       30.01F
DETROIT CITY   LGT RAIN  41  32  70 E8        30.00S
DETROIT        CLOUDY    44  35  70 NE6       29.99S
FLINT          LGT RAIN  44  32  62 E7        30.01R
GROSSE ILE     DRIZZLE   45  36  70 NE9       29.97S
HILLSDALE      CLOUDY    40  39  94 E18G26    29.90F FOG     WCI  31
HOWELL         DRIZZLE   40  36  85 E6        29.98F

CITY           SKY/WX    TMP DP  RH WIND       PRES   REMARKS
JACKSON        CLOUDY    39 N/A N/A E9G20     29.95F WCI  33
LAMBERTVILLE   CLOUDY    45  41  86 E7        29.96F FOG
LANSING        LGT RAIN  39  34  82 E12       29.99F WCI  32
LAPEER         CLOUDY    41  26  53 E7        30.01S
MASON          RAIN      40  35  83 E10       29.97F WCI  33
MONROE         LGT RAIN  42  38  88 NE6       29.98R
MT. CLEMENS    LGT RAIN  42  32  68 NE13      29.99F
PONTIAC        LGT RAIN  41  30  65 E8        29.98S
PORT HOPE        N/A     40  33  76 E14       30.06S WCI  32
PORT HURON     CLOUDY    45  25  45 E9        30.02F
TRI CITIES     CLOUDY    46  24  42 E14       30.03S
MIDLAND        PTSUNNY   44  28  53 E13G21    30.03S
TROY           DRIZZLE   41  32  70 NE9       30.01S
SAGINAW HB     CLOUDY    45  25  45 E15       30.02S
$$
MIZ043>046-050>051-056>058-064>065-071>073-077>080-281600-
SOUTHWEST LOWER MICHIGAN

CITY           SKY/WX    TMP DP  RH WIND       PRES   REMARKS
BATTLE CREEK   LGT RAIN  39  35  86 E16G22    29.90F WCI  30
BENTON HARBOR  CLOUDY    45  37  73 E21       29.89R
BIG RAPIDS     CLOUDY    43  23  45 E16       29.98S
COLDWATER      CLOUDY    41  38  89 E16G22    29.91R
FREMONT        CLOUDY    38  32  78 E13G22    29.97S WCI  30
HOLLAND        LGT RAIN  39  35  86 E16G25    29.91F WCI  30
GRAND RAPIDS   RAIN      38  34  85 E15       29.97F FOG     WCI  29
IONIA          LGT RAIN  37  33  83 E14       29.98S WCI  29
KALAMAZOO      LGT RAIN  41  34  76 E10G21    29.91F
LUDINGTON      LGT RAIN  42  30  62 E6        29.99R
MARSHALL       CLOUDY    39  37  92 E15G21    29.92F WCI  31
MOUNT PLEASANT CLOUDY    44  26  49 E16       30.01S
MUSKEGON       LGT RAIN  38  32  79 E18G29    29.93F WCI  28
$$
MIZ016>042-281600-
NORTHERN LOWER MICHIGAN

CITY           SKY/WX    TMP DP  RH WIND       PRES   REMARKS
ALPENA         CLOUDY    39  27  62 E12G21    30.12R WCI  32
BEAVER ISLAND  CLOUDY    44  28  51 E12G20    30.08F
BELLAIRE       CLOUDY    48  24  38 E8        30.05S
CADILLAC       CLOUDY    44  20  38 E17G25    29.98F
CHARLEVOIX     CLOUDY    44  25  48 E13G18    30.08S
FRANKFORT      CLOUDY    47  25  42 E7        30.00S
GAYLORD        CLOUDY    42  25  50 E8G17     30.04F
GRAYLING       CLOUDY    44  27  49 E16G22    30.05S
HARBOR SPRINGS MOSUNNY   44  26  48 E17       30.07S
HOUGHTON LAKE  PTSUNNY   46  23  40 E16G26    30.03S
MANISTEE       CLOUDY    46  18  31 E16G23    30.00S
OSCODA         CLOUDY    42  31  66 E15       30.10R
PELLSTON       MOSUNNY   45  25  45 E15G22    30.09F
ROGERS CITY    CLOUDY    40  29  63 E16G22    30.13S WCI  32
TRAVERSE CITY  CLOUDY    48  23  37 E13G20    30.02S
$$
MIZ007>008-015-281600-
EASTERN UPPER MICHIGAN

CITY           SKY/WX    TMP DP  RH WIND       PRES   REMARKS
KINROSS          N/A     43  27  52 E9        30.11S
MACKINAC ISLAN CLOUDY    39  28  63 E17G24    30.11S WCI  30
NEWBERRY       MOSUNNY   44  26  48 E9G16     30.10S
S. S. MARIE    CLOUDY    42  25  50 SE8       30.12F
MUNISING         N/A     48  25  40 VRB7      30.09F
$$
MIZ004>006-011>014-085-281600-
CENTRAL UPPER MICHIGAN

CITY           SKY/WX    TMP DP  RH WIND       PRES   REMARKS
MANISTIQUE     MOSUNNY   46  27  48 E13G21    30.09F
ESCANABA       CLOUDY    46  27  46 E15       30.07S
MENOMINEE      CLOUDY    43  30  61 NE17G23   30.04S
SAWYER-GWINN   SUNNY     43  25  49 E8        30.10S
$$
MIZ001>003-009>011-084-281600-
WESTERN UPPER MICHIGAN

CITY           SKY/WX    TMP DP  RH WIND       PRES   REMARKS
IRON MOUNTAIN  CLOUDY    43  22  43 E9G18     30.04S
HOUGHTON       CLOUDY    41  27  57 E12       30.10F
COPPER HARBOR    N/A     39  31  72 VRB7      30.14F WCI  34
IRONWOOD       CLOUDY    41  19  42 E13       30.02F
$$

ABBREVIATIONS USED IN REMARKS
   TC - TEMPERATURE IN CELSIUS
  WCI - WIND CHILL INDEX
   HX - HEAT INDEX
  VSB - VISIBILITY





USA.gov is the U.S. government's official web portal to all federal, state and local government web resources and services.